| time (UTC) | temp C | wind direction | speed KPH | gust KPH | rain 1hr cm | rain 24hr cm | rain mn cm | humidity % | barometer mb |
| 20260506113944 | 0 | 168 | 0.0 | 0.0 | 0.00 | 0.00 | 0.00 | 85 | 1013.5 |
| 20260506113442 | -1 | 169 | 0.0 | 0.0 | 0.00 | 0.00 | 0.00 | 85 | 1013.9 |
| 20260506112938 | -1 | 169 | 0.0 | 0.0 | 0.00 | 0.00 | 0.00 | 85 | 1013.5 |
| 20260506112436 | -1 | 167 | 0.0 | 0.0 | 0.00 | 0.00 | 0.00 | 85 | 1013.5 |
| 20260506111933 | -1 | 172 | 0.0 | 0.0 | 0.00 | 0.00 | 0.00 | 85 | 1013.2 |
| 20260506111431 | -1 | 172 | 0.0 | 0.0 | 0.00 | 0.00 | 0.00 | 85 | 1013.2 |
| 20260506110928 | -1 | 166 | 0.0 | 0.0 | 0.00 | 0.00 | 0.00 | 84 | 1013.2 |
| 20260506110426 | -1 | 166 | 0.0 | 0.0 | 0.00 | 0.00 | 0.00 | 84 | 1013.2 |
| 20260506105922 | -1 | 166 | 0.0 | 0.0 | 0.00 | 0.00 | 0.00 | 84 | 1013.2 |
| 20260506105418 | -1 | 167 | 0.0 | 0.0 | 0.00 | 0.00 | 0.00 | 84 | 1012.9 |
| 20260506104916 | -1 | 166 | 0.0 | 0.0 | 0.00 | 0.00 | 0.00 | 84 | 1012.5 |
| 20260506104414 | -2 | 167 | 0.0 | 0.0 | 0.00 | 0.00 | 0.00 | 84 | 1012.5 |
| 20260506103911 | -2 | 167 | 0.0 | 0.0 | 0.00 | 0.00 | 0.00 | 84 | 1012.5 |
| 20260506103409 | -2 | 165 | 0.0 | 0.0 | 0.00 | 0.00 | 0.00 | 84 | 1012.5 |
| 20260506102905 | -2 | 162 | 0.0 | 0.0 | 0.00 | 0.00 | 0.00 | 85 | 1012.5 |
| 20260506102404 | -2 | 159 | 0.0 | 0.0 | 0.00 | 0.00 | 0.00 | 85 | 1012.9 |
| 20260506101900 | -2 | 165 | 0.0 | 0.0 | 0.00 | 0.00 | 0.00 | 86 | 1012.5 |
| 20260506101356 | -2 | 164 | 0.0 | 0.0 | 0.00 | 0.00 | 0.00 | 87 | 1012.5 |
| 20260506100854 | -2 | 165 | 0.0 | 0.0 | 0.00 | 0.00 | 0.00 | 87 | 1012.9 |
| 20260506100352 | -2 | 151 | 1.6 | 1.6 | 0.00 | 0.00 | 0.00 | 88 | 1012.9 |
| 20260506095850 | -2 | 169 | 0.0 | 0.0 | 0.00 | 0.00 | 0.00 | 88 | 1012.9 |
| 20260506095348 | -3 | 167 | 0.0 | 0.0 | 0.00 | 0.00 | 0.00 | 88 | 1012.9 |
| 20260506094844 | -3 | 168 | 0.0 | 0.0 | 0.00 | 0.00 | 0.00 | 89 | 1012.9 |
| 20260506094343 | -3 | 172 | 0.0 | 0.0 | 0.00 | 0.00 | 0.00 | 88 | 1012.9 |
| 20260506093841 | -3 | 168 | 0.0 | 0.0 | 0.00 | 0.00 | 0.00 | 88 | 1012.9 |
| 20260506093338 | -3 | 202 | 1.6 | 1.6 | 0.00 | 0.00 | 0.00 | 88 | 1013.2 |
| 20260506092835 | -3 | 163 | 0.0 | 0.0 | 0.00 | 0.00 | 0.00 | 87 | 1012.9 |
| 20260506092333 | -3 | 163 | 0.0 | 0.0 | 0.00 | 0.00 | 0.00 | 86 | 1012.5 |
| 20260506091830 | -3 | 163 | 0.0 | 0.0 | 0.00 | 0.00 | 0.00 | 86 | 1012.5 |
| 20260506091328 | -3 | 162 | 0.0 | 0.0 | 0.00 | 0.00 | 0.00 | 85 | 1012.2 |
| 20260506090825 | -3 | 164 | 0.0 | 0.0 | 0.00 | 0.00 | 0.00 | 85 | 1012.5 |
| 20260506090322 | -2 | 153 | 0.0 | 1.6 | 0.00 | 0.00 | 0.00 | 85 | 1012.5 |
| 20260506085819 | -2 | 165 | 0.0 | 0.0 | 0.00 | 0.00 | 0.00 | 84 | 1012.5 |
| 20260506085315 | -2 | 165 | 0.0 | 0.0 | 0.00 | 0.00 | 0.00 | 84 | 1012.9 |
| 20260506084812 | -2 | 178 | 0.0 | 0.0 | 0.00 | 0.00 | 0.00 | 83 | 1012.9 |
| 20260506084308 | -2 | 179 | 0.0 | 0.0 | 0.00 | 0.00 | 0.00 | 82 | 1012.9 |
| 20260506083805 | -1 | 179 | 0.0 | 0.0 | 0.00 | 0.00 | 0.00 | 81 | 1012.5 |
| 20260506083303 | -1 | 178 | 0.0 | 0.0 | 0.00 | 0.00 | 0.00 | 80 | 1012.5 |
| 20260506082800 | -1 | 178 | 0.0 | 0.0 | 0.00 | 0.00 | 0.00 | 79 | 1012.2 |
| 20260506082255 | -1 | 178 | 0.0 | 0.0 | 0.00 | 0.00 | 0.00 | 78 | 1012.2 |
| 20260506081753 | 0 | 178 | 0.0 | 0.0 | 0.00 | 0.00 | 0.00 | 77 | 1012.5 |
| 20260506081251 | 0 | 178 | 0.0 | 0.0 | 0.00 | 0.00 | 0.00 | 76 | 1012.5 |
| 20260506080748 | 0 | 178 | 0.0 | 0.0 | 0.00 | 0.00 | 0.00 | 75 | 1012.2 |
| 20260506080244 | 0 | 176 | 0.0 | 0.0 | 0.00 | 0.00 | 0.00 | 75 | 1012.2 |
| 20260506073228 | 0 | 169 | 1.6 | 1.6 | 0.00 | 0.00 | 0.00 | 73 | 1012.2 |
| 20260506072725 | 0 | 157 | 0.0 | 0.0 | 0.00 | 0.00 | 0.00 | 73 | 1012.2 |
| 20260506072223 | 0 | 206 | 0.0 | 1.6 | 0.00 | 0.00 | 0.00 | 72 | 1012.2 |
| 20260506071720 | 1 | 164 | 0.0 | 0.0 | 0.00 | 0.00 | 0.00 | 72 | 1012.2 |
| 20260506071218 | 1 | 166 | 0.0 | 0.0 | 0.00 | 0.00 | 0.00 | 71 | 1012.2 |
| 20260506070715 | 1 | 193 | 3.2 | 3.2 | 0.00 | 0.00 | 0.00 | 71 | 1012.2 |
| 20260506070212 | 1 | 145 | 1.6 | 1.6 | 0.00 | 0.00 | 0.00 | 70 | 1012.2 |
| 20260506062149 | 2 | 19 | 4.8 | 8.0 | 0.00 | 0.00 | 0.00 | 70 | 1012.2 |
| 20260506061645 | 2 | 151 | 1.6 | 1.6 | 0.00 | 0.00 | 0.00 | 69 | 1012.2 |
| 20260506061142 | 2 | 162 | 0.0 | 0.0 | 0.00 | 0.00 | 0.00 | 70 | 1012.2 |
| 20260506060641 | 2 | 188 | 0.0 | 1.6 | 0.00 | 0.00 | 0.00 | 70 | 1012.2 |
| 20260506060137 | 2 | 181 | 0.0 | 0.0 | 0.00 | 0.00 | 0.00 | 70 | 1012.2 |
| 20260506051109 | 3 | 19 | 4.8 | 9.7 | 0.00 | 0.00 | 0.00 | 68 | 1011.5 |
| 20260506050608 | 3 | 167 | 1.6 | 3.2 | 0.00 | 0.00 | 0.00 | 69 | 1011.5 |
| 20260506050105 | 3 | 181 | 1.6 | 3.2 | 0.00 | 0.00 | 0.00 | 69 | 1011.5 |
| 20260506045058 | 3 | 161 | 0.0 | 0.0 | 0.00 | 0.00 | 0.00 | 69 | 1011.1 |
| 20260506044556 | 3 | 180 | 0.0 | 1.6 | 0.00 | 0.00 | 0.00 | 69 | 1011.1 |
| 20260506044052 | 2 | 174 | 0.0 | 0.0 | 0.00 | 0.00 | 0.00 | 69 | 1011.1 |
| 20260506043549 | 2 | 168 | 0.0 | 0.0 | 0.00 | 0.00 | 0.00 | 69 | 1011.1 |
| 20260506043048 | 2 | 169 | 0.0 | 0.0 | 0.00 | 0.00 | 0.00 | 69 | 1011.1 |
| 20260506042547 | 3 | 172 | 0.0 | 0.0 | 0.00 | 0.00 | 0.00 | 68 | 1011.1 |
| 20260506042044 | 3 | 174 | 0.0 | 0.0 | 0.00 | 0.00 | 0.00 | 67 | 1011.1 |
| 20260506041543 | 3 | 178 | 0.0 | 0.0 | 0.00 | 0.00 | 0.00 | 66 | 1011.1 |
| 20260506041039 | 3 | 143 | 0.0 | 0.0 | 0.00 | 0.00 | 0.00 | 66 | 1011.1 |
| 20260506040537 | 3 | 162 | 0.0 | 0.0 | 0.00 | 0.00 | 0.00 | 66 | 1011.1 |
| 20260506040032 | 3 | 182 | 0.0 | 1.6 | 0.00 | 0.00 | 0.00 | 66 | 1011.1 |
| 20260506035530 | 3 | 167 | 0.0 | 0.0 | 0.00 | 0.00 | 0.00 | 66 | 1011.1 |
| 20260506035026 | 3 | 200 | 1.6 | 3.2 | 0.00 | 0.00 | 0.00 | 66 | 1011.1 |
| 20260506034524 | 3 | 234 | 3.2 | 3.2 | 0.00 | 0.00 | 0.00 | 65 | 1011.1 |
| 20260506034021 | 4 | 162 | 0.0 | 1.6 | 0.00 | 0.00 | 0.00 | 64 | 1011.1 |
| 20260506033518 | 4 | 176 | 0.0 | 1.6 | 0.00 | 0.00 | 0.00 | 64 | 1011.1 |
| 20260506033015 | 4 | 151 | 0.0 | 0.0 | 0.00 | 0.00 | 0.00 | 64 | 1011.1 |
| 20260506032512 | 4 | 164 | 1.6 | 1.6 | 0.00 | 0.00 | 0.00 | 64 | 1011.1 |
| 20260506032009 | 4 | 154 | 0.0 | 0.0 | 0.00 | 0.00 | 0.00 | 64 | 1011.1 |
| 20260506031507 | 4 | 170 | 1.6 | 1.6 | 0.00 | 0.00 | 0.00 | 64 | 1010.7 |
| 20260506031003 | 4 | 171 | 0.0 | 0.0 | 0.00 | 0.00 | 0.00 | 64 | 1010.7 |
| 20260506030501 | 4 | 173 | 1.6 | 1.6 | 0.00 | 0.00 | 0.00 | 63 | 1011.1 |
| 20260506025958 | 5 | 176 | 0.0 | 0.0 | 0.00 | 0.00 | 0.00 | 63 | 1010.7 |
| 20260506025455 | 5 | 300 | 4.8 | 8.0 | 0.00 | 0.00 | 0.00 | 62 | 1010.7 |
| 20260506024951 | 5 | 151 | 1.6 | 1.6 | 0.00 | 0.00 | 0.00 | 63 | 1010.7 |
| 20260506024448 | 4 | 166 | 0.0 | 0.0 | 0.00 | 0.00 | 0.00 | 62 | 1010.7 |
| 20260506023944 | 4 | 175 | 0.0 | 0.0 | 0.00 | 0.00 | 0.00 | 62 | 1010.4 |
| 20260506023441 | 5 | 180 | 0.0 | 0.0 | 0.00 | 0.00 | 0.00 | 62 | 1010.4 |
| 20260506022938 | 5 | 172 | 0.0 | 0.0 | 0.00 | 0.00 | 0.00 | 61 | 1010.0 |
| 20260506022435 | 5 | 203 | 0.0 | 1.6 | 0.00 | 0.00 | 0.00 | 61 | 1010.0 |
| 20260506021933 | 5 | 169 | 0.0 | 0.0 | 0.00 | 0.00 | 0.00 | 61 | 1010.0 |
| 20260506021430 | 5 | 168 | 0.0 | 0.0 | 0.00 | 0.00 | 0.00 | 61 | 1010.4 |
| 20260506020927 | 5 | 177 | 0.0 | 0.0 | 0.00 | 0.00 | 0.00 | 60 | 1010.0 |
| 20260506020425 | 5 | 164 | 0.0 | 0.0 | 0.00 | 0.00 | 0.00 | 60 | 1009.7 |
| 20260506015922 | 6 | 174 | 0.0 | 0.0 | 0.00 | 0.00 | 0.00 | 59 | 1009.7 |
| 20260506015420 | 6 | 176 | 3.2 | 3.2 | 0.00 | 0.00 | 0.00 | 58 | 1009.4 |
| 20260506014916 | 6 | 167 | 0.0 | 0.0 | 0.00 | 0.00 | 0.00 | 58 | 1009.7 |
| 20260506014413 | 6 | 171 | 0.0 | 0.0 | 0.00 | 0.00 | 0.00 | 58 | 1009.7 |
| 20260506013910 | 6 | 215 | 4.8 | 4.8 | 0.00 | 0.00 | 0.00 | 57 | 1009.7 |
| 20260506013408 | 6 | 174 | 0.0 | 0.0 | 0.00 | 0.00 | 0.00 | 59 | 1009.7 |
| 20260506012903 | 6 | 206 | 0.0 | 1.6 | 0.00 | 0.00 | 0.00 | 58 | 1009.4 |
| 20260506012400 | 6 | 174 | 0.0 | 0.0 | 0.00 | 0.00 | 0.00 | 57 | 1009.7 |
| 20260506011858 | 6 | 165 | 0.0 | 0.0 | 0.00 | 0.00 | 0.00 | 57 | 1009.4 |
| 20260506011355 | 6 | 179 | 0.0 | 1.6 | 0.00 | 0.00 | 0.00 | 57 | 1009.4 |
| 20260506010852 | 7 | 173 | 0.0 | 1.6 | 0.00 | 0.00 | 0.00 | 55 | 1009.4 |
| 20260506010350 | 7 | 189 | 1.6 | 1.6 | 0.00 | 0.00 | 0.00 | 55 | 1009.4 |
| 20260506005847 | 7 | 170 | 0.0 | 0.0 | 0.00 | 0.00 | 0.00 | 55 | 1009.4 |
| 20260506005343 | 7 | 168 | 0.0 | 0.0 | 0.00 | 0.00 | 0.00 | 54 | 1009.4 |
| 20260506004839 | 7 | 181 | 0.0 | 1.6 | 0.00 | 0.00 | 0.00 | 53 | 1009.0 |
| 20260506004337 | 7 | 145 | 3.2 | 3.2 | 0.00 | 0.00 | 0.00 | 52 | 1009.0 |
| 20260506003833 | 7 | 241 | 3.2 | 3.2 | 0.00 | 0.00 | 0.00 | 53 | 1009.0 |
| 20260506003329 | 7 | 226 | 1.6 | 3.2 | 0.00 | 0.00 | 0.00 | 54 | 1008.7 |
| 20260506002826 | 7 | 141 | 1.6 | 1.6 | 0.00 | 0.00 | 0.00 | 52 | 1009.0 |
| 20260506002322 | 7 | 182 | 1.6 | 3.2 | 0.00 | 0.00 | 0.00 | 52 | 1009.0 |
| 20260506001818 | 7 | 216 | 3.2 | 3.2 | 0.00 | 0.00 | 0.00 | 52 | 1009.0 |
| 20260506001315 | 8 | 170 | 3.2 | 4.8 | 0.00 | 0.00 | 0.00 | 51 | 1009.0 |
| 20260506000812 | 8 | 182 | 1.6 | 1.6 | 0.00 | 0.00 | 0.00 | 51 | 1009.0 |
| 20260506000310 | 8 | 167 | 0.0 | 1.6 | 0.00 | 0.00 | 0.00 | 51 | 1008.7 |
| 20260505235806 | 8 | 277 | 4.8 | 4.8 | 0.00 | 0.00 | 0.00 | 50 | 1008.7 |
| 20260505235305 | 8 | 219 | 4.8 | 8.0 | 0.00 | 0.00 | 0.00 | 50 | 1009.0 |
| 20260505234801 | 8 | 235 | 3.2 | 3.2 | 0.00 | 0.00 | 0.00 | 50 | 1009.0 |
| 20260505234259 | 8 | 224 | 6.4 | 9.7 | 0.00 | 0.00 | 0.00 | 50 | 1009.0 |
| 20260505233755 | 8 | 212 | 9.7 | 16.1 | 0.00 | 0.00 | 0.00 | 49 | 1009.4 |
| 20260505233253 | 8 | 206 | 1.6 | 3.2 | 0.00 | 0.00 | 0.00 | 50 | 1008.7 |
| 20260505232750 | 8 | 152 | 1.6 | 3.2 | 0.00 | 0.00 | 0.00 | 49 | 1009.0 |
| 20260505232247 | 8 | 310 | 8.0 | 11.3 | 0.00 | 0.00 | 0.00 | 49 | 1009.0 |
| 20260505231744 | 8 | 177 | 1.6 | 3.2 | 0.00 | 0.00 | 0.00 | 51 | 1009.0 |
| 20260505231243 | 8 | 194 | 1.6 | 1.6 | 0.00 | 0.00 | 0.00 | 51 | 1008.7 |
| 20260505230741 | 8 | 237 | 4.8 | 8.0 | 0.00 | 0.00 | 0.00 | 49 | 1009.0 |
| 20260505230237 | 8 | 181 | 1.6 | 3.2 | 0.00 | 0.00 | 0.00 | 50 | 1009.0 |
| 20260505225734 | 8 | 261 | 6.4 | 8.0 | 0.00 | 0.00 | 0.00 | 50 | 1008.7 |
| 20260505225231 | 8 | 15 | 8.0 | 11.3 | 0.00 | 0.00 | 0.00 | 48 | 1009.0 |
| 20260505224726 | 8 | 140 | 1.6 | 1.6 | 0.00 | 0.00 | 0.00 | 50 | 1008.7 |
| 20260505224224 | 8 | 172 | 1.6 | 3.2 | 0.00 | 0.00 | 0.00 | 50 | 1008.7 |
| 20260505223721 | 9 | 184 | 1.6 | 3.2 | 0.00 | 0.00 | 0.00 | 49 | 1009.0 |
| 20260505223217 | 9 | 300 | 6.4 | 9.7 | 0.00 | 0.00 | 0.00 | 50 | 1009.0 |
| 20260505222713 | 9 | 211 | 4.8 | 8.0 | 0.00 | 0.00 | 0.00 | 48 | 1009.0 |
| 20260505222209 | 9 | 257 | 4.8 | 11.3 | 0.00 | 0.00 | 0.00 | 49 | 1009.0 |
| 20260505221707 | 9 | 191 | 6.4 | 9.7 | 0.00 | 0.00 | 0.00 | 48 | 1008.7 |
| 20260505221203 | 9 | 163 | 1.6 | 3.2 | 0.00 | 0.00 | 0.00 | 49 | 1009.0 |
| 20260505220700 | 10 | 269 | 4.8 | 4.8 | 0.00 | 0.00 | 0.00 | 47 | 1008.7 |
| 20260505220158 | 8 | 216 | 8.0 | 9.7 | 0.00 | 0.00 | 0.00 | 48 | 1009.0 |
| 20260505215656 | 8 | 36 | 3.2 | 4.8 | 0.00 | 0.00 | 0.00 | 49 | 1009.0 |
| 20260505215154 | 8 | 342 | 8.0 | 12.9 | 0.00 | 0.00 | 0.00 | 49 | 1009.4 |
| 20260505214651 | 8 | 247 | 4.8 | 8.0 | 0.00 | 0.00 | 0.00 | 49 | 1009.0 |
| 20260505214148 | 8 | 145 | 1.6 | 1.6 | 0.00 | 0.00 | 0.00 | 50 | 1009.0 |
| 20260505213646 | 8 | 163 | 0.0 | 0.0 | 0.00 | 0.00 | 0.00 | 49 | 1009.0 |
| 20260505213143 | 8 | 247 | 3.2 | 3.2 | 0.00 | 0.00 | 0.00 | 50 | 1009.0 |
| 20260505212638 | 8 | 283 | 1.6 | 4.8 | 0.00 | 0.00 | 0.00 | 48 | 1009.0 |
| 20260505212136 | 8 | 301 | 4.8 | 4.8 | 0.00 | 0.00 | 0.00 | 48 | 1009.0 |
| 20260505211633 | 9 | 165 | 6.4 | 9.7 | 0.00 | 0.00 | 0.00 | 48 | 1009.0 |
| 20260505211130 | 8 | 213 | 3.2 | 4.8 | 0.00 | 0.00 | 0.00 | 52 | 1009.0 |
| 20260505210627 | 8 | 203 | 4.8 | 4.8 | 0.00 | 0.00 | 0.00 | 49 | 1009.0 |
| 20260505210123 | 9 | 202 | 4.8 | 4.8 | 0.00 | 0.00 | 0.00 | 51 | 1009.4 |
| 20260505205621 | 9 | 110 | 3.2 | 4.8 | 0.00 | 0.00 | 0.00 | 48 | 1009.0 |
| 20260505205119 | 9 | 232 | 4.8 | 4.8 | 0.00 | 0.00 | 0.00 | 47 | 1009.0 |
| 20260505204616 | 10 | 210 | 3.2 | 3.2 | 0.00 | 0.00 | 0.00 | 49 | 1009.0 |
| 20260505204113 | 8 | 198 | 3.2 | 3.2 | 0.00 | 0.00 | 0.00 | 49 | 1009.0 |
| 20260505203609 | 8 | 187 | 3.2 | 3.2 | 0.00 | 0.00 | 0.00 | 51 | 1009.0 |
| 20260505203107 | 8 | 304 | 3.2 | 3.2 | 0.00 | 0.00 | 0.00 | 49 | 1009.0 |
| 20260505202603 | 8 | 207 | 3.2 | 3.2 | 0.00 | 0.00 | 0.00 | 51 | 1009.4 |
| 20260505202059 | 9 | 181 | 4.8 | 4.8 | 0.00 | 0.00 | 0.00 | 48 | 1009.0 |
| 20260505201555 | 10 | 120 | 4.8 | 8.0 | 0.00 | 0.00 | 0.00 | 47 | 1009.4 |
| 20260505201053 | 9 | 38 | 4.8 | 8.0 | 0.00 | 0.00 | 0.00 | 48 | 1009.0 |
| 20260505200551 | 8 | 278 | 4.8 | 8.0 | 0.00 | 0.00 | 0.00 | 48 | 1009.4 |
| 20260505200048 | 9 | 22 | 11.3 | 12.9 | 0.00 | 0.00 | 0.00 | 48 | 1009.0 |
| 20260505195544 | 9 | 204 | 8.0 | 9.7 | 0.00 | 0.00 | 0.00 | 49 | 1009.0 |
| 20260505195042 | 8 | 182 | 1.6 | 1.6 | 0.00 | 0.00 | 0.00 | 51 | 1009.0 |
| 20260505194539 | 8 | 211 | 8.0 | 11.3 | 0.00 | 0.00 | 0.00 | 49 | 1009.4 |
| 20260505194034 | 9 | 182 | 1.6 | 1.6 | 0.00 | 0.00 | 0.00 | 49 | 1009.0 |
| 20260505193531 | 8 | 136 | 1.6 | 1.6 | 0.00 | 0.00 | 0.00 | 52 | 1009.0 |
| 20260505193028 | 8 | 253 | 4.8 | 4.8 | 0.00 | 0.00 | 0.00 | 50 | 1009.0 |
| 20260505192527 | 8 | 246 | 11.3 | 14.5 | 0.00 | 0.00 | 0.00 | 50 | 1009.4 |
| 20260505192024 | 8 | 224 | 1.6 | 4.8 | 0.00 | 0.00 | 0.00 | 51 | 1009.4 |
| 20260505191522 | 8 | 209 | 4.8 | 4.8 | 0.00 | 0.00 | 0.00 | 51 | 1009.0 |
| 20260505191020 | 8 | 165 | 4.8 | 4.8 | 0.00 | 0.00 | 0.00 | 50 | 1009.4 |
| 20260505190514 | 8 | 281 | 4.8 | 9.7 | 0.00 | 0.00 | 0.00 | 51 | 1009.0 |
| 20260505190011 | 8 | 345 | 9.7 | 12.9 | 0.00 | 0.00 | 0.00 | 51 | 1009.4 |
| 20260505185508 | 8 | 172 | 4.8 | 8.0 | 0.00 | 0.00 | 0.00 | 50 | 1009.4 |
| 20260505185004 | 8 | 291 | 4.8 | 8.0 | 0.00 | 0.00 | 0.00 | 49 | 1009.4 |
| 20260505184501 | 8 | 198 | 4.8 | 4.8 | 0.00 | 0.00 | 0.00 | 51 | 1009.4 |
| 20260505183957 | 8 | 156 | 0.0 | 1.6 | 0.00 | 0.00 | 0.00 | 54 | 1009.0 |
| 20260505183454 | 7 | 168 | 3.2 | 4.8 | 0.00 | 0.00 | 0.00 | 51 | 1009.4 |
| 20260505182951 | 7 | 216 | 6.4 | 9.7 | 0.00 | 0.00 | 0.00 | 51 | 1009.0 |
| 20260505182448 | 7 | 205 | 8.0 | 12.9 | 0.00 | 0.00 | 0.00 | 51 | 1009.0 |
| 20260505181944 | 8 | 47 | 6.4 | 12.9 | 0.00 | 0.00 | 0.00 | 50 | 1009.0 |
| 20260505181442 | 8 | 200 | 3.2 | 4.8 | 0.00 | 0.00 | 0.00 | 52 | 1009.4 |
| 20260505180938 | 7 | 100 | 4.8 | 8.0 | 0.00 | 0.00 | 0.00 | 52 | 1009.4 |
| 20260505180434 | 7 | 118 | 1.6 | 3.2 | 0.00 | 0.00 | 0.00 | 52 | 1009.4 |
| 20260505175932 | 7 | 1 | 4.8 | 4.8 | 0.00 | 0.00 | 0.00 | 53 | 1009.4 |
| 20260505175428 | 7 | 349 | 4.8 | 9.7 | 0.00 | 0.00 | 0.00 | 52 | 1009.0 |
| 20260505174924 | 7 | 64 | 1.6 | 1.6 | 0.00 | 0.00 | 0.00 | 52 | 1009.0 |
| 20260505174422 | 7 | 53 | 3.2 | 4.8 | 0.00 | 0.00 | 0.00 | 53 | 1009.4 |
| 20260505173918 | 7 | 246 | 4.8 | 9.7 | 0.00 | 0.00 | 0.00 | 53 | 1009.4 |
| 20260505173414 | 7 | 347 | 6.4 | 11.3 | 0.00 | 0.00 | 0.00 | 53 | 1009.0 |
| 20260505172911 | 6 | 180 | 3.2 | 3.2 | 0.00 | 0.00 | 0.00 | 54 | 1009.0 |
| 20260505172409 | 7 | 253 | 4.8 | 8.0 | 0.00 | 0.00 | 0.00 | 52 | 1009.0 |
| 20260505171908 | 7 | 172 | 1.6 | 3.2 | 0.00 | 0.00 | 0.00 | 53 | 1009.0 |
| 20260505171406 | 7 | 154 | 0.0 | 1.6 | 0.00 | 0.00 | 0.00 | 55 | 1009.4 |
| 20260505170902 | 7 | 195 | 6.4 | 9.7 | 0.00 | 0.00 | 0.00 | 52 | 1009.0 |
| 20260505170359 | 7 | 168 | 0.0 | 0.0 | 0.00 | 0.00 | 0.00 | 54 | 1009.4 |
| 20260505165854 | 7 | 11 | 1.6 | 3.2 | 0.00 | 0.00 | 0.00 | 53 | 1009.4 |
| 20260505165350 | 6 | 164 | 3.2 | 3.2 | 0.00 | 0.00 | 0.00 | 55 | 1009.4 |
| 20260505164846 | 6 | 214 | 9.7 | 12.9 | 0.00 | 0.00 | 0.00 | 53 | 1009.4 |
| 20260505164343 | 7 | 194 | 1.6 | 3.2 | 0.00 | 0.00 | 0.00 | 53 | 1009.4 |
| 20260505163841 | 6 | 272 | 4.8 | 4.8 | 0.00 | 0.00 | 0.00 | 52 | 1009.0 |
| 20260505163340 | 6 | 203 | 8.0 | 12.9 | 0.00 | 0.00 | 0.00 | 53 | 1009.0 |
| 20260505162838 | 6 | 168 | 0.0 | 0.0 | 0.00 | 0.00 | 0.00 | 53 | 1009.0 |
| 20260505162334 | 6 | 138 | 3.2 | 4.8 | 0.00 | 0.00 | 0.00 | 52 | 1009.0 |
| 20260505161831 | 6 | 156 | 4.8 | 9.7 | 0.00 | 0.00 | 0.00 | 53 | 1009.0 |
| 20260505161328 | 6 | 198 | 3.2 | 3.2 | 0.00 | 0.00 | 0.00 | 52 | 1009.0 |
| 20260505160825 | 6 | 233 | 3.2 | 8.0 | 0.00 | 0.00 | 0.00 | 52 | 1009.0 |
| 20260505160323 | 6 | 220 | 4.8 | 8.0 | 0.00 | 0.00 | 0.00 | 53 | 1008.7 |
| 20260505153302 | 6 | 215 | 8.0 | 9.7 | 0.00 | 0.00 | 0.00 | 50 | 1008.7 |
| 20260505152759 | 7 | 221 | 8.0 | 9.7 | 0.00 | 0.00 | 0.00 | 51 | 1008.7 |
| 20260505152255 | 7 | 213 | 1.6 | 3.2 | 0.00 | 0.00 | 0.00 | 52 | 1008.7 |
| 20260505151750 | 7 | 354 | 11.3 | 12.9 | 0.00 | 0.00 | 0.00 | 53 | 1008.7 |
| 20260505151248 | 6 | 59 | 3.2 | 4.8 | 0.00 | 0.00 | 0.00 | 51 | 1008.4 |
| 20260505150744 | 6 | 179 | 3.2 | 3.2 | 0.00 | 0.00 | 0.00 | 54 | 1008.7 |
| 20260505150242 | 7 | 298 | 4.8 | 8.0 | 0.00 | 0.00 | 0.00 | 54 | 1008.7 |
| 20260505140212 | 6 | 161 | 3.2 | 3.2 | 0.00 | 0.00 | 0.00 | 58 | 1008.4 |
| 20260505130135 | 4 | 321 | 4.8 | 4.8 | 0.00 | 0.00 | 0.00 | 63 | 1007.7 |
| 20260505124625 | 4 | 171 | 1.6 | 1.6 | 0.00 | 0.00 | 0.00 | 64 | 1007.2 |
| 20260505124121 | 3 | 343 | 6.4 | 9.7 | 0.00 | 0.00 | 0.00 | 65 | 1007.2 |
| 20260505123617 | 3 | 155 | 1.6 | 1.6 | 0.00 | 0.00 | 0.00 | 65 | 1007.2 |
| 20260505123114 | 3 | 175 | 4.8 | 4.8 | 0.00 | 0.00 | 0.00 | 66 | 1007.7 |
| 20260505122611 | 3 | 167 | 1.6 | 3.2 | 0.00 | 0.00 | 0.00 | 68 | 1007.2 |
| 20260505122108 | 3 | 175 | 1.6 | 3.2 | 0.00 | 0.00 | 0.00 | 69 | 1007.2 |
| 20260505121605 | 3 | 160 | 1.6 | 1.6 | 0.00 | 0.00 | 0.00 | 70 | 1006.9 |
| 20260505121102 | 3 | 206 | 3.2 | 3.2 | 0.00 | 0.00 | 0.00 | 72 | 1006.9 |
| 20260505120558 | 2 | 168 | 0.0 | 0.0 | 0.00 | 0.00 | 0.00 | 75 | 1006.9 |
| 20260505120054 | 2 | 172 | 0.0 | 1.6 | 0.00 | 0.00 | 0.00 | 77 | 1006.9 |
| 20260505115548 | 2 | 220 | 1.6 | 1.6 | 0.00 | 0.00 | 0.00 | 78 | 1006.6 |
| 20260505115046 | 1 | 215 | 1.6 | 1.6 | 0.00 | 0.00 | 0.00 | 80 | 1006.6 |
| 20260505114543 | 1 | 178 | 0.0 | 0.0 | 0.00 | 0.00 | 0.00 | 81 | 1006.6 |